FW3613 Weather Reports


Display with metric or nautical units.
time (UTC)temp
F
wind
direction
speed
MPH
gust
MPH
rain 1hr
in
rain 24hr
in
rain mn
in
humidity
%
barometer
mb
20260510214550 87 96 2.0 6.0 0.00 0.00 0.00 14 1014.0
20260510214045 87 57 3.0 6.0 0.00 0.00 0.00 14 1014.1
20260510213543 87 101 2.0 6.0 0.00 0.00 0.00 14 1014.1
20260510213047 87 80 2.0 6.0 0.00 0.00 0.00 13 1014.2
20260510212542 87 122 3.0 6.0 0.00 0.00 0.00 13 1014.4
20260510212041 86 120 4.0 7.0 0.00 0.00 0.00 14 1014.4
20260510211540 86 127 2.0 10.0 0.00 0.00 0.00 15 1014.4
20260510211041 86 69 4.0 10.0 0.00 0.00 0.00 15 1014.5
20260510210538 86 27 1.0 7.0 0.00 0.00 0.00 16 1014.6
20260510210041 86 125 3.0 7.0 0.00 0.00 0.00 14 1014.8
20260510205536 86 66 3.0 7.0 0.00 0.00 0.00 15 1014.8
20260510205037 86 94 3.0 6.0 0.00 0.00 0.00 14 1014.9
20260510204540 85 129 4.0 7.0 0.00 0.00 0.00 15 1015.0
20260510204033 85 95 3.0 7.0 0.00 0.00 0.00 15 1015.1
20260510203532 85 86 2.0 7.0 0.00 0.00 0.00 14 1015.1
20260510203031 85 124 2.0 6.0 0.00 0.00 0.00 15 1015.2
20260510202533 85 146 4.0 7.0 0.00 0.00 0.00 15 1015.3
20260510202030 85 114 3.0 6.0 0.00 0.00 0.00 17 1015.4
20260510201529 85 40 2.0 7.0 0.00 0.00 0.00 16 1015.6
20260510201029 85 122 2.0 7.0 0.00 0.00 0.00 17 1015.7
20260510200527 85 34 2.0 5.0 0.00 0.00 0.00 18 1015.7
20260510200027 84 108 2.0 6.0 0.00 0.00 0.00 18 1015.8
20260510195524 84 109 3.0 6.0 0.00 0.00 0.00 19 1015.8
20260510195024 84 312 2.0 6.0 0.00 0.00 0.00 20 1015.8
20260510194528 83 79 3.0 8.0 0.00 0.00 0.00 20 1016.0
20260510194022 83 100 1.0 8.0 0.00 0.00 0.00 19 1016.1
20260510193521 83 139 1.0 6.0 0.00 0.00 0.00 20 1016.2
20260510193020 82 106 2.0 6.0 0.00 0.00 0.00 20 1016.3
20260510192522 82 43 1.0 6.0 0.00 0.00 0.00 20 1016.3
20260510192018 82 103 3.0 6.0 0.00 0.00 0.00 20 1016.5
20260510191517 82 104 2.0 6.0 0.00 0.00 0.00 20 1016.5
20260510191016 82 109 2.0 5.0 0.00 0.00 0.00 18 1016.6
20260510190515 82 79 2.0 5.0 0.00 0.00 0.00 20 1016.6
20260510190032 81 120 3.0 5.0 0.00 0.00 0.00 19 1016.7
20260510185512 81 27 1.0 5.0 0.00 0.00 0.00 21 1016.8
20260510185010 81 135 2.0 5.0 0.00 0.00 0.00 23 1016.9
20260510184510 80 134 2.0 7.0 0.00 0.00 0.00 24 1016.9
20260510184011 80 156 4.0 7.0 0.00 0.00 0.00 23 1017.0
20260510183509 80 124 2.0 5.0 0.00 0.00 0.00 24 1017.0
20260510183007 79 39 1.0 5.0 0.00 0.00 0.00 25 1017.0
20260510182506 79 36 2.0 5.0 0.00 0.00 0.00 24 1017.0
20260510182005 78 54 1.0 6.0 0.00 0.00 0.00 25 1017.1
20260510181504 78 38 3.0 6.0 0.00 0.00 0.00 25 1017.2
20260510181003 77 75 2.0 5.0 0.00 0.00 0.00 26 1017.2
20260510180501 77 132 3.0 0.0 0.00 0.00 0.00 26 1017.2
20260510180106 77 96 2.0 5.0 0.00 0.00 0.00 28 1017.3
20260510175559 76 94 2.0 5.0 0.00 0.00 0.00 27 1017.3
20260510175057 76 75 1.0 7.0 0.00 0.00 0.00 28 1017.3
20260510174604 76 122 3.0 7.0 0.00 0.00 0.00 29 1017.4
20260510174055 75 98 2.0 6.0 0.00 0.00 0.00 29 1017.4
20260510173554 74 124 2.0 6.0 0.00 0.00 0.00 30 1017.4
20260510173056 74 105 2.0 5.0 0.00 0.00 0.00 31 1017.4
20260510172551 74 125 1.0 4.0 0.00 0.00 0.00 32 1017.5
20260510172050 73 105 2.0 4.0 0.00 0.00 0.00 32 1017.6
20260510171549 73 36 2.0 4.0 0.00 0.00 0.00 33 1017.6
20260510171051 72 101 2.0 7.0 0.00 0.00 0.00 33 1017.6
20260510170546 72 94 2.0 8.0 0.00 0.00 0.00 33 1017.7
20260510170046 71 123 2.0 8.0 0.00 0.00 0.00 34 1017.7
20260510165546 71 64 2.0 6.0 0.00 0.00 0.00 34 1017.8
20260510165041 71 61 2.0 5.0 0.00 0.00 0.00 35 1017.8
20260510164553 71 138 2.0 6.0 0.00 0.00 0.00 34 1017.8
20260510164040 70 125 2.0 7.0 0.00 0.00 0.00 34 1017.8
20260510163542 70 109 2.0 8.0 0.00 0.00 0.00 34 1018.0
20260510163038 70 53 1.0 5.0 0.00 0.00 0.00 35 1018.0
20260510162537 69 36 2.0 5.0 0.00 0.00 0.00 34 1018.0
20260510162035 69 80 2.0 6.0 0.00 0.00 0.00 34 1018.0
20260510161534 68 120 0.0 6.0 0.00 0.00 0.00 36 1018.0
20260510161032 68 136 2.0 4.0 0.00 0.00 0.00 37 1018.1
20260510160532 67 123 1.0 5.0 0.00 0.00 0.00 37 1018.2
20260510160035 67 159 1.0 5.0 0.00 0.00 0.00 38 1018.2
20260510155528 66 108 3.0 5.0 0.00 0.00 0.00 37 1018.2
20260510155027 66 105 2.0 5.0 0.00 0.00 0.00 38 1018.3
20260510154529 66 101 2.0 4.0 0.00 0.00 0.00 38 1018.3
20260510154026 65 108 1.0 4.0 0.00 0.00 0.00 39 1018.3
20260510153525 65 67 2.0 5.0 0.00 0.00 0.00 39 1018.3
20260510153023 64 122 1.0 6.0 0.00 0.00 0.00 41 1018.3
20260510152521 64 108 1.0 3.0 0.00 0.00 0.00 42 1018.3
20260510152019 63 49 0.0 5.0 0.00 0.00 0.00 45 1018.3
20260510151524 63 110 0.0 5.0 0.00 0.00 0.00 45 1018.3
20260510151016 62 124 1.0 4.0 0.00 0.00 0.00 46 1018.3
20260510150515 61 121 0.0 2.0 0.00 0.00 0.00 47 1018.4
20260510150013 61 56 0.0 4.0 0.00 0.00 0.00 48 1018.4
20260510145514 60 44 1.0 4.0 0.00 0.00 0.00 48 1018.4
20260510145010 60 49 1.0 4.0 0.00 0.00 0.00 51 1018.4
20260510144509 59 122 1.0 5.0 0.00 0.00 0.00 50 1018.4
20260510144008 59 28 1.0 5.0 0.00 0.00 0.00 52 1018.4
20260510143509 58 126 0.0 2.0 0.00 0.00 0.00 52 1018.4
20260510143009 57 53 0.0 4.0 0.00 0.00 0.00 52 1018.4
20260510142503 57 138 1.0 4.0 0.00 0.00 0.00 54 1018.5
20260510142002 56 79 1.0 3.0 0.00 0.00 0.00 57 1018.5
20260510141506 54 49 0.0 2.0 0.00 0.00 0.00 62 1018.5
20260510141002 53 18 0.0 0.0 0.00 0.00 0.00 65 1018.4
20260510140600 53 19 0.0 0.0 0.00 0.00 0.00 68 1018.5
20260510140059 52 19 0.0 0.0 0.00 0.00 0.00 68 1018.4
20260510135559 52 19 0.0 0.0 0.00 0.00 0.00 68 1018.3
20260510135058 51 19 0.0 0.0 0.00 0.00 0.00 67 1018.3
20260510134608 51 19 0.0 0.0 0.00 0.00 0.00 68 1018.3
20260510134057 50 19 0.0 0.0 0.00 0.00 0.00 70 1018.3
20260510133557 49 49 0.0 0.0 0.00 0.00 0.00 74 1018.2
20260510133058 48 50 0.0 0.0 0.00 0.00 0.00 75 1018.2
20260510132557 47 49 0.0 0.0 0.00 0.00 0.00 76 1018.1
20260510132059 47 50 0.0 0.0 0.00 0.00 0.00 77 1018.0
20260510131601 46 50 0.0 0.0 0.00 0.00 0.00 78 1018.0
20260510131056 46 49 0.0 0.0 0.00 0.00 0.00 78 1018.1
20260510130555 46 49 0.0 0.0 0.00 0.00 0.00 78 1018.1
20260510130055 46 49 0.0 0.0 0.00 0.00 0.00 77 1018.0
20260510125558 46 50 0.0 0.0 0.00 0.00 0.00 78 1018.0
20260510125054 46 49 0.0 0.0 0.00 0.00 0.00 78 1017.9
20260510124600 45 50 0.0 0.0 0.00 0.00 0.00 79 1017.9
20260510124054 45 49 0.0 0.0 0.00 0.00 0.00 79 1017.9
20260510123553 45 50 0.0 0.0 0.00 0.00 0.00 78 1017.8
20260510123052 46 50 0.0 0.0 0.00 0.00 0.00 77 1017.8
20260510122550 46 50 0.0 0.0 0.00 0.00 0.00 76 1017.8
20260510122050 46 49 0.0 0.0 0.00 0.00 0.00 76 1017.9
20260510121549 46 49 0.0 0.0 0.00 0.00 0.00 76 1017.9
20260510121048 46 49 0.0 0.0 0.00 0.00 0.00 76 1017.9
20260510120546 47 50 0.0 0.0 0.00 0.00 0.00 75 1017.9
20260510120046 47 50 0.0 0.0 0.00 0.00 0.00 75 1017.8
20260510115544 47 49 0.0 0.0 0.00 0.00 0.00 74 1017.8
20260510115043 47 49 0.0 0.0 0.00 0.00 0.00 73 1017.7
20260510114604 47 44 0.0 0.0 0.00 0.00 0.00 73 1017.8
20260510114041 47 44 0.0 0.0 0.00 0.00 0.00 73 1017.7
20260510113541 47 44 0.0 0.0 0.00 0.00 0.00 72 1017.6
20260510113052 48 44 0.0 0.0 0.00 0.00 0.00 72 1017.6
20260510112538 48 44 0.0 0.0 0.00 0.00 0.00 72 1017.6
20260510112037 49 44 0.0 0.0 0.00 0.00 0.00 71 1017.6
20260510111538 49 44 0.0 0.0 0.00 0.00 0.00 70 1017.5
20260510111033 50 44 0.0 0.0 0.00 0.00 0.00 69 1017.5
20260510110532 50 44 0.0 0.0 0.00 0.00 0.00 68 1017.4
20260510110037 50 44 0.0 0.0 0.00 0.00 0.00 66 1017.4
20260510105534 50 44 0.0 0.0 0.00 0.00 0.00 66 1017.5
20260510105032 50 44 0.0 0.0 0.00 0.00 0.00 66 1017.5
20260510104531 51 44 0.0 0.0 0.00 0.00 0.00 67 1017.5
20260510104030 51 44 0.0 0.0 0.00 0.00 0.00 65 1017.4
20260510103531 52 44 0.0 0.0 0.00 0.00 0.00 63 1017.4
20260510103031 52 44 0.0 0.0 0.00 0.00 0.00 61 1017.4
20260510102531 52 40 0.0 1.0 0.00 0.00 0.00 59 1017.4
20260510102030 52 40 0.0 1.0 0.00 0.00 0.00 58 1017.4
20260510101531 52 22 0.0 1.0 0.00 0.00 0.00 58 1017.4
20260510101034 52 22 0.0 1.0 0.00 0.00 0.00 59 1017.5
20260510100529 52 21 0.0 2.0 0.00 0.00 0.00 60 1017.4
20260510100033 51 22 0.0 2.0 0.00 0.00 0.00 61 1017.4
20260510095532 51 108 0.0 0.0 0.00 0.00 0.00 62 1017.5
20260510095029 51 108 0.0 0.0 0.00 0.00 0.00 62 1017.5
20260510094535 51 108 0.0 0.0 0.00 0.00 0.00 63 1017.5
20260510094026 50 108 0.0 0.0 0.00 0.00 0.00 64 1017.5
20260510093526 50 108 0.0 0.0 0.00 0.00 0.00 66 1017.5
20260510093025 51 108 0.0 0.0 0.00 0.00 0.00 67 1017.6
20260510092524 51 100 0.0 0.0 0.00 0.00 0.00 67 1017.5
20260510092023 52 100 0.0 1.0 0.00 0.00 0.00 65 1017.5
20260510091521 52 100 0.0 1.0 0.00 0.00 0.00 67 1017.4
20260510091024 52 117 0.0 0.0 0.00 0.00 0.00 64 1017.5
20260510090523 52 117 0.0 0.0 0.00 0.00 0.00 65 1017.5
20260510090027 53 117 0.0 0.0 0.00 0.00 0.00 64 1017.5
20260510085523 53 80 0.0 0.0 0.00 0.00 0.00 63 1017.5
20260510085020 53 79 0.0 0.0 0.00 0.00 0.00 62 1017.5
20260510084526 53 79 0.0 0.0 0.00 0.00 0.00 62 1017.5
20260510084020 53 76 0.0 0.0 0.00 0.00 0.00 61 1017.5
20260510083519 53 77 0.0 0.0 0.00 0.00 0.00 58 1017.5
20260510083020 54 76 0.0 0.0 0.00 0.00 0.00 59 1017.5
20260510082522 54 77 0.0 0.0 0.00 0.00 0.00 57 1017.5
20260510082019 54 76 0.0 0.0 0.00 0.00 0.00 55 1017.5
20260510081519 54 76 0.0 0.0 0.00 0.00 0.00 56 1017.5
20260510081019 53 77 0.0 0.0 0.00 0.00 0.00 58 1017.5
20260510080517 53 76 0.0 0.0 0.00 0.00 0.00 59 1017.6
20260510080016 53 76 0.0 0.0 0.00 0.00 0.00 60 1017.5
20260510075514 53 77 0.0 1.0 0.00 0.00 0.00 58 1017.4
20260510075014 53 77 0.0 1.0 0.00 0.00 0.00 59 1017.4
20260510074514 53 105 0.0 1.0 0.00 0.00 0.00 59 1017.4
20260510074012 54 105 0.0 2.0 0.00 0.00 0.00 59 1017.3
20260510073512 54 86 1.0 2.0 0.00 0.00 0.00 57 1017.3
20260510073012 54 45 0.0 2.0 0.00 0.00 0.00 60 1017.5
20260510072514 53 89 0.0 2.0 0.00 0.00 0.00 59 1017.5
20260510072012 53 108 0.0 1.0 0.00 0.00 0.00 60 1017.5
20260510071512 53 109 0.0 2.0 0.00 0.00 0.00 61 1017.5
20260510071012 53 109 0.0 2.0 0.00 0.00 0.00 62 1017.5
20260510070510 53 54 0.0 0.0 0.00 0.00 0.00 63 1017.5
20260510070013 52 54 0.0 0.0 0.00 0.00 0.00 63 1017.5
20260510065509 52 54 0.0 0.0 0.00 0.00 0.00 65 1017.5
20260510065011 52 53 0.0 0.0 0.00 0.00 0.00 66 1017.5
20260510064508 52 123 0.0 0.0 0.00 0.00 0.00 67 1017.4
20260510064006 52 123 0.0 0.0 0.00 0.00 0.00 68 1017.4
20260510063505 53 123 0.0 0.0 0.00 0.00 0.00 65 1017.4
20260510063004 53 123 0.0 0.0 0.00 0.00 0.00 63 1017.4
20260510062502 53 122 0.0 0.0 0.00 0.00 0.00 62 1017.4
20260510062001 53 123 0.0 0.0 0.00 0.00 0.00 61 1017.4
20260510061600 54 122 0.0 0.0 0.00 0.00 0.00 61 1017.4
20260510061059 54 123 0.0 0.0 0.00 0.00 0.00 60 1017.4
20260510060558 54 123 0.0 0.0 0.00 0.00 0.00 59 1017.4
20260510055556 55 122 0.0 0.0 0.00 0.00 0.00 58 1017.4
20260510055056 55 122 0.0 0.0 0.00 0.00 0.00 58 1017.4
20260510054601 55 122 0.0 2.0 0.00 0.00 0.00 59 1017.4
20260510054056 55 123 0.0 2.0 0.00 0.00 0.00 57 1017.4
20260510053557 56 86 1.0 2.0 0.00 0.00 0.00 54 1017.4
20260510053055 56 44 0.0 1.0 0.00 0.00 0.00 56 1017.4
20260510052555 56 44 0.0 1.0 0.00 0.00 0.00 56 1017.4
20260510052055 56 44 0.0 1.0 0.00 0.00 0.00 55 1017.4
20260510051555 57 105 0.0 1.0 0.00 0.00 0.00 53 1017.2
20260510051057 57 106 0.0 1.0 0.00 0.00 0.00 51 1017.3
20260510050554 57 109 0.0 1.0 0.00 0.00 0.00 53 1017.3
20260510050054 58 108 0.0 1.0 0.00 0.00 0.00 52 1017.3
20260510045556 58 89 0.0 1.0 0.00 0.00 0.00 51 1017.3
20260510045055 58 86 0.0 1.0 0.00 0.00 0.00 51 1017.2
20260510044603 58 79 0.0 0.0 0.00 0.00 0.00 51 1017.2
20260510044053 58 79 0.0 1.0 0.00 0.00 0.00 51 1017.1
20260510043554 58 79 0.0 2.0 0.00 0.00 0.00 51 1017.2
20260510043054 59 131 0.0 2.0 0.00 0.00 0.00 50 1017.1
20260510042554 59 131 0.0 1.0 0.00 0.00 0.00 49 1017.1
20260510042053 59 94 0.0 1.0 0.00 0.00 0.00 50 1017.0
20260510041558 60 95 0.0 1.0 0.00 0.00 0.00 47 1017.0
20260510041053 61 86 0.0 1.0 0.00 0.00 0.00 46 1017.0
20260510040554 61 80 0.0 1.0 0.00 0.00 0.00 44 1017.0
20260510040053 61 84 0.0 2.0 0.00 0.00 0.00 44 1017.0
20260510035552 60 85 1.0 2.0 0.00 0.00 0.00 44 1016.8
20260510035056 60 120 0.0 2.0 0.00 0.00 0.00 46 1016.8
20260510034552 61 120 0.0 2.0 0.00 0.00 0.00 47 1016.9
20260510034052 61 122 0.0 1.0 0.00 0.00 0.00 45 1016.7
20260510033551 62 124 0.0 1.0 0.00 0.00 0.00 44 1016.7
20260510033115 63 128 0.0 2.0 0.00 0.00 0.00 42 1016.7
20260510032555 64 129 0.0 2.0 0.00 0.00 0.00 40 1016.7
20260510032051 64 219 0.0 0.0 0.00 0.00 0.00 40 1016.6
20260510031605 65 219 0.0 1.0 0.00 0.00 0.00 39 1016.6
20260510031055 66 219 0.0 1.0 0.00 0.00 0.00 37 1016.5
20260510030550 67 283 0.0 1.0 0.00 0.00 0.00 35 1016.5
20260510030051 69 283 0.0 1.0 0.00 0.00 0.00 34 1016.5
20260510025550 70 283 0.0 0.0 0.00 0.00 0.00 30 1016.4
20260510025050 70 283 0.0 1.0 0.00 0.00 0.00 30 1016.3
20260510024550 71 283 0.0 3.0 0.00 0.00 0.00 27 1016.3
20260510024051 71 283 0.0 3.0 0.00 0.00 0.00 27 1016.3
20260510023550 72 291 0.0 4.0 0.00 0.00 0.00 26 1016.3
20260510023051 72 297 0.0 6.0 0.00 0.00 0.00 26 1016.3
20260510022550 72 292 2.0 4.0 0.00 0.00 0.00 26 1016.2
20260510022050 72 308 2.0 7.0 0.00 0.00 0.00 26 1016.2
20260510021550 72 304 1.0 7.0 0.00 0.00 0.00 25 1016.2
20260510021049 72 291 1.0 7.0 0.00 0.00 0.00 25 1016.2
20260510020550 73 305 2.0 7.0 0.00 0.00 0.00 25 1016.2
20260510020049 73 298 2.0 8.0 0.00 0.00 0.00 25 1016.2
20260510015554 73 284 3.0 8.0 0.00 0.00 0.00 25 1016.2
20260510015051 73 300 2.0 9.0 0.00 0.00 0.00 25 1016.2
20260510014551 73 297 3.0 9.0 0.00 0.00 0.00 24 1016.2
20260510014047 73 304 4.0 11.0 0.00 0.00 0.00 24 1016.2
20260510013547 74 306 2.0 11.0 0.00 0.00 0.00 25 1016.2
20260510013047 74 298 4.0 11.0 0.00 0.00 0.00 24 1016.4
20260510012546 74 294 2.0 7.0 0.00 0.00 0.00 24 1016.3
20260510012046 74 301 4.0 7.0 0.00 0.00 0.00 23 1016.4
20260510011549 74 284 2.0 7.0 0.00 0.00 0.00 23 1016.4
20260510011049 75 293 3.0 8.0 0.00 0.00 0.00 23 1016.3
20260510010544 75 309 3.0 11.0 0.00 0.00 0.00 23 1016.3
20260510010057 75 300 2.0 11.0 0.00 0.00 0.00 23 1016.3
20260510005545 75 307 3.0 8.0 0.00 0.00 0.00 22 1016.4
20260510005048 75 300 3.0 6.0 0.00 0.00 0.00 22 1016.4
20260510004546 75 297 1.0 6.0 0.00 0.00 0.00 20 1016.3
20260510004044 75 285 2.0 7.0 0.00 0.00 0.00 20 1016.4
20260510003545 75 274 2.0 8.0 0.00 0.00 0.00 19 1016.5
20260510003054 75 231 1.0 8.0 0.00 0.00 0.00 18 1016.5
20260510002544 75 297 1.0 6.0 0.00 0.00 0.00 19 1016.6
20260510002043 75 297 1.0 9.0 0.00 0.00 0.00 18 1016.5
20260510001546 75 304 2.0 9.0 0.00 0.00 0.00 18 1016.5
20260510001043 76 300 3.0 9.0 0.00 0.00 0.00 18 1016.5
20260510000544 76 349 2.0 8.0 0.00 0.00 0.00 17 1016.5
20260510000050 76 297 2.0 11.0 0.00 0.00 0.00 17 1016.6
20260509235545 76 315 4.0 11.0 0.00 0.00 0.00 16 1016.6
20260509235041 76 288 3.0 11.0 0.00 0.00 0.00 16 1016.7
20260509234551 76 307 3.0 11.0 0.00 0.00 0.00 17 1016.8
20260509234040 76 312 3.0 13.0 0.00 0.00 0.00 17 1016.8
20260509233542 76 290 6.0 13.0 0.00 0.00 0.00 14 1016.9
20260509233040 76 294 1.0 9.0 0.00 0.00 0.00 18 1016.8
20260509232539 76 295 3.0 11.0 0.00 0.00 0.00 17 1016.9
20260509232039 76 312 5.0 11.0 0.00 0.00 0.00 15 1016.9
20260509231539 76 312 4.0 11.0 0.00 0.00 0.00 17 1016.9
20260509231038 76 298 4.0 11.0 0.00 0.00 0.00 16 1016.9
20260509230537 76 287 3.0 9.0 0.00 0.00 0.00 16 1016.9
20260509230036 76 304 2.0 8.0 0.00 0.00 0.00 17 1017.0
20260509225539 75 285 2.0 6.0 0.00 0.00 0.00 18 1017.0
20260509225036 76 270 2.0 11.0 0.00 0.00 0.00 18 1017.1
20260509224536 75 313 4.0 11.0 0.00 0.00 0.00 18 1017.1
20260509224034 76 307 6.0 11.0 0.00 0.00 0.00 18 1017.2
20260509223535 76 295 2.0 9.0 0.00 0.00 0.00 19 1017.3
20260509223034 76 291 3.0 11.0 0.00 0.00 0.00 18 1017.4
20260509222533 76 300 3.0 11.0 0.00 0.00 0.00 19 1017.4
20260509222035 76 291 4.0 9.0 0.00 0.00 0.00 19 1017.5
20260509221533 76 262 2.0 9.0 0.00 0.00 0.00 21 1017.5
20260509221032 75 305 2.0 9.0 0.00 0.00 0.00 19 1017.5
20260509220530 75 288 5.0 10.0 0.00 0.00 0.00 21 1017.6
20260509220031 75 300 2.0 14.0 0.00 0.00 0.00 21 1017.6
20260509215529 75 267 5.0 11.0 0.00 0.00 0.00 22 1017.7
20260509215032 75 296 3.0 10.0 0.00 0.00 0.00 22 1017.8